Weather History for KRXE - September, 2012

Change the Weather History Date:

Sunday, September 9, 2012

  Actual Average Record
Temperature  
Mean Temperature 62 °F 58 °F  
Max Temperature 83 °F 75 °F 85 °F (2011)
Min Temperature 41 °F 42 °F 30 °F (2001)
Degree Days  
Heating Degree Days 3 7  
Month to date heating degree days 34 51  
Since 1 July heating degree days 41 124  
Cooling Degree Days 0 0  
Month to date cooling degree days 0 5  
Year to date cooling degree days 419 207  
Growing Degree Days 12 (Base 50)    
Moisture  
Dew Point 38 °F    
Average Humidity 48    
Maximum Humidity 82    
Minimum Humidity 14    
Precipitation  
Precipitation 0.00 in 0.03 in 0.49 in (2010)
Month to date precipitation 0.30 0.27  
Year to date precipitation 6.61 9.19  
Sea Level Pressure  
Sea Level Pressure 30.00 in    
Wind  
Wind Speed 6 mph (SSE)    
Max Wind Speed 18 mph    
Max Gust Speed 24 mph    
Visibility 10 miles    
Events      
T = Trace of Precipitation, MM = Missing Value Source: NWS Daily Summary

Daily Weather History Graph

Daily Weather History Graph

Search for Another Location

Airport or City:

Trip Planner

Search our weather history database for the weather conditions in past years. The results will help you decide how hot, cold, wet, or windy it might be!

Date:

Astronomy

Sep. 09, 2012 Rise Set
Actual Time 7:00 AM MDT 7:47 PM MDT
Civil Twilight 6:31 AM MDT 8:16 PM MDT
Nautical Twilight 5:56 AM MDT 8:51 PM MDT
Astronomical Twilight 5:20 AM MDT 9:27 PM MDT
Moon 12:23 AM MDT (9/9) 3:44 PM MDT (9/9)
Length of Visible Light 13h 45m
Length of Day
12h 47m
Last Quarter, 39% of the Moon is Illuminated
Sep 9
Last Quarter
Sep 15
New
Sep 22
First Quarter
Sep 29
Full
Oct 8
Last Quarter

Hourly Weather History & Observations

Time (MDT) Temp. Windchill Dew Point Humidity Pressure Visibility Wind Dir Wind Speed Gust Speed Precip Events Conditions
12:53 AM 48.0 °F - 39.0 °F 71% 30.11 in 10.0 mi NE 4.6 mph - N/A   Clear
1:53 AM 48.0 °F - 39.9 °F 74% 30.10 in 10.0 mi NE 4.6 mph - N/A   Clear
2:53 AM 46.9 °F - 39.0 °F 74% 30.09 in 10.0 mi Calm Calm - N/A   Clear
3:53 AM 46.0 °F 44.8 °F 39.0 °F 76% 30.09 in 10.0 mi ENE 3.5 mph - N/A   Clear
4:53 AM 45.0 °F 41.8 °F 37.9 °F 76% 30.08 in 10.0 mi ENE 5.8 mph - N/A   Clear
5:53 AM 43.0 °F 40.3 °F 37.9 °F 82% 30.09 in 10.0 mi NE 4.6 mph - N/A   Clear
6:53 AM 42.1 °F 39.2 °F 37.0 °F 82% 30.10 in 10.0 mi ENE 4.6 mph - N/A   Clear
7:53 AM 44.1 °F 41.5 °F 37.0 °F 76% 30.11 in 10.0 mi NE 4.6 mph - N/A   Clear
8:53 AM 48.9 °F - 37.9 °F 66% 30.12 in 10.0 mi NE 3.5 mph - N/A   Clear
9:53 AM 57.0 °F - 42.1 °F 57% 30.09 in 10.0 mi NE 3.5 mph - N/A   Clear
10:53 AM 66.9 °F - 42.1 °F 40% 30.08 in 10.0 mi Calm Calm - N/A   Clear
11:53 AM 73.9 °F - 39.0 °F 28% 30.04 in 10.0 mi Calm Calm - N/A   Clear
12:53 PM 79.0 °F - 34.0 °F 20% 30.00 in 10.0 mi SSW 4.6 mph - N/A   Clear
1:53 PM 82.0 °F - 28.9 °F 14% 29.98 in 10.0 mi SW 9.2 mph - N/A   Clear
2:53 PM 82.0 °F - 30.0 °F 15% 29.95 in 10.0 mi WSW 8.1 mph - N/A   Clear
3:53 PM 79.0 °F - 32.0 °F 18% 29.95 in 10.0 mi SW 13.8 mph 23.0 mph N/A   Mostly Cloudy
4:53 PM 79.0 °F - 36.0 °F 21% 29.92 in 10.0 mi SW 5.8 mph - N/A   Clear
5:53 PM 80.1 °F - 37.9 °F 22% 29.90 in 10.0 mi South 6.9 mph - N/A   Clear
6:53 PM 79.0 °F - 39.9 °F 25% 29.89 in 10.0 mi SSW 6.9 mph - N/A   Clear
7:53 PM 73.0 °F - 39.9 °F 30% 29.88 in 10.0 mi South 5.8 mph - N/A   Clear
8:53 PM 72.0 °F - 37.0 °F 28% 29.87 in 10.0 mi South 6.9 mph - N/A   Clear
9:53 PM 71.1 °F - 39.0 °F 31% 29.86 in 10.0 mi South 8.1 mph - N/A   Clear
10:53 PM 68.0 °F - 39.0 °F 35% 29.84 in 10.0 mi SSW 9.2 mph - N/A   Clear
11:53 PM 68.0 °F - 39.0 °F 35% 29.82 in 10.0 mi SSW 9.2 mph - N/A   Clear